Time,TemperatureF,DewpointF,PressureIn,WindDirection,WindDirectionDegrees,WindSpeedMPH,WindSpeedGustMPH,Humidity,HourlyPrecipIn,Conditions,Clouds,dailyrainin,SoftwareType,DateUTC
2013-01-08 00:02:00,31.6,24.3,30.09,West,270,0.0,0.0,74,0.00,,,0.00,meteohub,2013-01-08 06:02:00,
2013-01-08 00:07:00,31.5,24.1,30.08,WNW,293,0.0,0.0,74,0.00,,,0.00,meteohub,2013-01-08 06:07:00,
2013-01-08 00:12:00,31.5,24.1,30.09,WNW,293,0.0,0.0,74,0.00,,,0.00,meteohub,2013-01-08 06:12:00,
2013-01-08 00:22:00,31.5,24.1,30.08,North,0,0.0,0.0,74,0.00,,,0.00,meteohub,2013-01-08 06:22:00,
2013-01-08 00:32:00,31.3,24.3,30.09,North,0,0.0,0.0,75,0.00,,,0.00,meteohub,2013-01-08 06:32:00,
2013-01-08 00:37:00,31.3,24.3,30.09,SSW,203,0.0,0.0,75,0.00,,,0.00,meteohub,2013-01-08 06:37:00,
2013-01-08 00:42:00,31.1,24.1,30.09,NW,315,0.0,0.0,75,0.00,,,0.00,meteohub,2013-01-08 06:42:00,
2013-01-08 00:52:00,31.1,24.4,30.10,SSW,203,0.0,0.0,76,0.00,,,0.00,meteohub,2013-01-08 06:52:00,
2013-01-08 00:57:00,30.9,24.3,30.10,North,0,0.0,0.0,76,0.00,,,0.00,meteohub,2013-01-08 06:57:00,
2013-01-08 01:02:00,30.9,24.3,30.10,SSW,203,0.0,0.0,76,0.00,,,0.00,meteohub,2013-01-08 07:02:00,
2013-01-08 01:07:00,31.1,24.4,30.09,SE,135,0.0,0.0,76,0.00,,,0.00,meteohub,2013-01-08 07:07:00,
2013-01-08 01:12:00,31.1,24.4,30.10,SSW,203,0.0,0.0,76,0.00,,,0.00,meteohub,2013-01-08 07:12:00,
2013-01-08 01:17:00,31.1,24.4,30.10,NNW,338,0.0,0.0,76,0.00,,,0.00,meteohub,2013-01-08 07:17:00,
2013-01-08 01:22:00,30.9,24.3,30.10,NNW,338,0.0,0.0,76,0.00,,,0.00,meteohub,2013-01-08 07:22:00,
2013-01-08 01:27:00,30.9,24.3,30.10,West,270,0.0,0.0,76,0.00,,,0.00,meteohub,2013-01-08 07:27:00,
2013-01-08 01:32:00,30.9,24.3,30.10,SSW,203,0.0,0.0,76,0.00,,,0.00,meteohub,2013-01-08 07:32:00,
2013-01-08 01:37:00,30.9,24.3,30.10,SSW,203,0.0,0.0,76,0.00,,,0.00,meteohub,2013-01-08 07:37:00,
2013-01-08 01:42:00,30.7,24.1,30.10,North,-999,-999.0,0.0,76,0.00,,,0.00,meteohub,2013-01-08 07:42:00,
2013-01-08 01:47:00,30.7,24.4,30.10,SSW,203,0.0,0.0,77,0.00,,,0.00,meteohub,2013-01-08 07:47:00,
2013-01-08 01:52:00,30.7,24.4,30.10,South,180,0.0,0.0,77,0.00,,,0.00,meteohub,2013-01-08 07:52:00,
2013-01-08 01:57:00,30.7,24.4,30.10,SSW,203,0.0,0.0,77,0.00,,,0.00,meteohub,2013-01-08 07:57:00,
2013-01-08 02:02:00,30.7,24.4,30.10,SE,135,0.0,0.0,77,0.00,,,0.00,meteohub,2013-01-08 08:02:00,
2013-01-08 02:07:00,30.7,24.4,30.11,NNW,338,0.0,0.0,77,0.00,,,0.00,meteohub,2013-01-08 08:07:00,
2013-01-08 02:12:00,30.7,24.4,30.10,SSW,203,0.0,0.0,77,0.00,,,0.00,meteohub,2013-01-08 08:12:00,
2013-01-08 02:17:00,30.9,24.6,30.11,SW,225,0.0,0.0,77,0.00,,,0.00,meteohub,2013-01-08 08:17:00,
2013-01-08 02:22:00,30.6,24.3,30.11,NNW,338,0.0,0.0,77,0.00,,,0.00,meteohub,2013-01-08 08:22:00,
2013-01-08 02:27:00,30.6,24.3,30.11,NNW,338,0.0,0.0,77,0.00,,,0.00,meteohub,2013-01-08 08:27:00,
2013-01-08 02:32:00,30.4,24.1,30.11,SSW,203,0.0,0.0,77,0.00,,,0.00,meteohub,2013-01-08 08:32:00,
2013-01-08 02:37:00,30.2,23.9,30.11,NNW,338,0.0,0.0,77,0.00,,,0.00,meteohub,2013-01-08 08:37:00,
2013-01-08 02:42:00,30.0,24.1,30.11,NNW,338,0.0,0.0,78,0.00,,,0.00,meteohub,2013-01-08 08:42:00,
2013-01-08 02:47:00,30.2,24.3,30.11,NNW,338,0.0,0.0,78,0.00,,,0.00,meteohub,2013-01-08 08:47:00,
2013-01-08 02:52:00,30.0,24.3,30.11,NNW,338,0.0,0.0,79,0.00,,,0.00,meteohub,2013-01-08 08:52:00,
2013-01-08 02:57:00,30.0,24.3,30.11,NNW,338,0.0,0.0,79,0.00,,,0.00,meteohub,2013-01-08 08:57:00,
2013-01-08 03:02:00,29.8,24.1,30.11,NNW,338,0.0,0.0,79,0.00,,,0.00,meteohub,2013-01-08 09:02:00,
2013-01-08 03:07:00,29.8,24.1,30.10,NNW,338,0.0,0.0,79,0.00,,,0.00,meteohub,2013-01-08 09:07:00,
2013-01-08 03:12:00,29.7,23.9,30.11,SSW,203,0.0,0.0,79,0.00,,,0.00,meteohub,2013-01-08 09:12:00,
2013-01-08 03:17:00,29.7,23.9,30.11,NNW,338,0.0,0.0,79,0.00,,,0.00,meteohub,2013-01-08 09:17:00,
2013-01-08 03:22:00,29.7,24.3,30.11,NNW,338,0.0,0.0,80,0.00,,,0.00,meteohub,2013-01-08 09:22:00,
2013-01-08 03:27:00,29.7,24.3,30.11,West,270,0.0,0.0,80,0.00,,,0.00,meteohub,2013-01-08 09:27:00,
2013-01-08 03:32:00,29.7,24.3,30.11,NNW,338,0.0,0.0,80,0.00,,,0.00,meteohub,2013-01-08 09:32:00,
2013-01-08 03:37:00,29.5,24.1,30.11,NNW,338,0.0,0.0,80,0.00,,,0.00,meteohub,2013-01-08 09:37:00,
2013-01-08 03:47:00,29.1,23.7,30.11,NNW,338,0.0,0.0,80,0.00,,,0.00,meteohub,2013-01-08 09:47:00,
2013-01-08 03:52:00,28.9,23.5,30.10,NNW,338,0.0,0.0,80,0.00,,,0.00,meteohub,2013-01-08 09:52:00,
2013-01-08 03:57:00,28.6,23.2,30.11,SSW,203,0.0,0.0,80,0.00,,,0.00,meteohub,2013-01-08 09:57:00,
2013-01-08 04:02:00,28.6,23.2,30.11,NNW,338,0.0,0.0,80,0.00,,,0.00,meteohub,2013-01-08 10:02:00,
2013-01-08 04:07:00,28.4,23.4,30.11,SSW,203,0.0,0.0,81,0.00,,,0.00,meteohub,2013-01-08 10:07:00,
2013-01-08 04:12:00,28.4,23.4,30.11,SSW,203,0.0,0.0,81,0.00,,,0.00,meteohub,2013-01-08 10:12:00,
2013-01-08 04:17:00,28.2,22.3,30.11,SSW,203,0.0,0.0,78,0.00,,,0.00,meteohub,2013-01-08 10:17:00,
2013-01-08 04:22:00,28.0,22.1,30.11,NNW,338,0.0,0.0,78,0.00,,,0.00,meteohub,2013-01-08 10:22:00,
2013-01-08 04:27:00,27.9,21.9,30.11,NNW,338,0.0,0.0,78,0.00,,,0.00,meteohub,2013-01-08 10:27:00,
2013-01-08 04:32:00,27.9,21.9,30.11,NNW,338,0.0,0.0,78,0.00,,,0.00,meteohub,2013-01-08 10:32:00,
2013-01-08 04:37:00,27.9,21.9,30.11,SE,135,0.0,0.0,78,0.00,,,0.00,meteohub,2013-01-08 10:37:00,
2013-01-08 04:42:00,27.9,22.3,30.11,NNW,338,0.0,0.0,79,0.00,,,0.00,meteohub,2013-01-08 10:42:00,
2013-01-08 04:47:00,27.9,22.3,30.11,NNW,338,0.0,0.0,79,0.00,,,0.00,meteohub,2013-01-08 10:47:00,
2013-01-08 04:52:00,27.9,22.3,30.11,NNW,338,0.0,0.0,79,0.00,,,0.00,meteohub,2013-01-08 10:52:00,
2013-01-08 04:57:00,27.9,22.3,30.11,NNW,338,0.0,0.0,79,0.00,,,0.00,meteohub,2013-01-08 10:57:00,
2013-01-08 05:02:00,27.9,22.3,30.11,NNW,338,0.0,0.0,79,0.00,,,0.00,meteohub,2013-01-08 11:02:00,
2013-01-08 05:07:00,27.7,22.1,30.11,SSW,203,0.0,0.0,79,0.00,,,0.00,meteohub,2013-01-08 11:07:00,
2013-01-08 05:12:00,27.7,22.1,30.11,SSW,203,0.0,0.0,79,0.00,,,0.00,meteohub,2013-01-08 11:12:00,
2013-01-08 05:17:00,27.5,21.9,30.12,NNW,338,0.0,0.0,79,0.00,,,0.00,meteohub,2013-01-08 11:17:00,
2013-01-08 05:22:00,27.5,21.9,30.12,SSW,203,0.0,0.0,79,0.00,,,0.00,meteohub,2013-01-08 11:22:00,
2013-01-08 05:27:00,27.7,22.1,30.12,SSW,203,0.0,0.0,79,0.00,,,0.00,meteohub,2013-01-08 11:27:00,
2013-01-08 05:32:00,27.5,21.9,30.12,SSW,203,0.0,0.0,79,0.00,,,0.00,meteohub,2013-01-08 11:32:00,
2013-01-08 05:37:00,27.1,21.6,30.12,SSW,203,0.0,0.0,79,0.00,,,0.00,meteohub,2013-01-08 11:37:00,
2013-01-08 05:42:00,27.0,21.4,30.12,SSW,203,0.0,0.0,79,0.00,,,0.00,meteohub,2013-01-08 11:42:00,
2013-01-08 05:47:00,26.8,21.2,30.12,SSW,203,0.0,0.0,79,0.00,,,0.00,meteohub,2013-01-08 11:47:00,
2013-01-08 05:52:00,26.8,21.2,30.13,SSW,203,0.0,0.0,79,0.00,,,0.00,meteohub,2013-01-08 11:52:00,
2013-01-08 05:57:00,26.6,21.0,30.13,SSW,203,0.0,0.0,79,0.00,,,0.00,meteohub,2013-01-08 11:57:00,
2013-01-08 06:02:00,26.2,20.8,30.13,SSW,203,0.0,0.0,80,0.00,,,0.00,meteohub,2013-01-08 12:02:00,
2013-01-08 06:07:00,26.4,21.0,30.13,SSW,203,0.0,0.0,80,0.00,,,0.00,meteohub,2013-01-08 12:07:00,
2013-01-08 06:12:00,26.1,20.7,30.13,SSW,203,0.0,0.0,80,0.00,,,0.00,meteohub,2013-01-08 12:12:00,
2013-01-08 06:17:00,25.9,20.5,30.14,NNW,338,0.0,0.0,80,0.00,,,0.00,meteohub,2013-01-08 12:17:00,
2013-01-08 06:22:00,25.5,20.3,30.14,NNW,338,0.0,0.0,80,0.00,,,0.00,meteohub,2013-01-08 12:22:00,
2013-01-08 06:27:00,25.5,20.5,30.14,SSW,203,0.0,0.0,81,0.00,,,0.00,meteohub,2013-01-08 12:27:00,
2013-01-08 06:32:00,25.7,20.7,30.14,NNW,338,0.0,0.0,81,0.00,,,0.00,meteohub,2013-01-08 12:32:00,
2013-01-08 06:37:00,25.7,20.7,30.14,NNW,338,0.0,0.0,81,0.00,,,0.00,meteohub,2013-01-08 12:37:00,
2013-01-08 06:42:00,25.7,21.0,30.14,NNW,338,0.0,0.0,82,0.00,,,0.00,meteohub,2013-01-08 12:42:00,
2013-01-08 06:47:00,25.9,21.2,30.14,SE,135,0.0,0.0,82,0.00,,,0.00,meteohub,2013-01-08 12:47:00,
2013-01-08 06:52:00,25.9,21.2,30.14,NNW,338,0.0,0.0,82,0.00,,,0.00,meteohub,2013-01-08 12:52:00,
2013-01-08 06:57:00,25.9,21.2,30.14,NNW,338,0.0,0.0,82,0.00,,,0.00,meteohub,2013-01-08 12:57:00,
2013-01-08 07:02:00,25.9,21.4,30.14,NNW,338,0.0,0.0,83,0.00,,,0.00,meteohub,2013-01-08 13:02:00,
2013-01-08 07:07:00,25.9,21.4,30.15,NNW,338,0.0,0.0,83,0.00,,,0.00,meteohub,2013-01-08 13:07:00,
2013-01-08 07:12:00,25.7,21.2,30.14,SSW,203,0.0,0.0,83,0.00,,,0.00,meteohub,2013-01-08 13:12:00,
2013-01-08 07:17:00,25.7,21.2,30.15,SSW,203,0.0,0.0,83,0.00,,,0.00,meteohub,2013-01-08 13:17:00,
2013-01-08 07:22:00,25.5,21.0,30.14,SSW,203,0.0,0.0,83,0.00,,,0.00,meteohub,2013-01-08 13:22:00,
2013-01-08 07:27:00,25.5,21.0,30.14,SE,135,0.0,0.0,83,0.00,,,0.00,meteohub,2013-01-08 13:27:00,
2013-01-08 07:32:00,25.5,21.0,30.15,NNW,338,0.0,0.0,83,0.00,,,0.00,meteohub,2013-01-08 13:32:00,
2013-01-08 07:37:00,25.3,20.8,30.15,NNW,338,0.0,0.0,83,0.00,,,0.00,meteohub,2013-01-08 13:37:00,
2013-01-08 07:42:00,25.3,20.8,30.15,NNW,338,0.0,0.0,83,0.00,,,0.00,meteohub,2013-01-08 13:42:00,
2013-01-08 07:47:00,25.3,20.8,30.16,SSW,203,0.0,0.0,83,0.00,,,0.00,meteohub,2013-01-08 13:47:00,
2013-01-08 07:52:00,25.3,20.8,30.15,SSW,203,0.0,0.0,83,0.00,,,0.00,meteohub,2013-01-08 13:52:00,
2013-01-08 07:57:00,25.7,21.2,30.15,SSW,203,0.0,0.0,83,0.00,,,0.00,meteohub,2013-01-08 13:57:00,
2013-01-08 08:02:00,25.7,21.2,30.16,NNW,338,0.0,0.0,83,0.00,,,0.00,meteohub,2013-01-08 14:02:00,
2013-01-08 08:07:00,25.7,21.2,30.16,NNW,338,0.0,0.0,83,0.00,,,0.00,meteohub,2013-01-08 14:07:00,
2013-01-08 08:12:00,25.7,21.2,30.16,SSW,203,0.0,0.0,83,0.00,,,0.00,meteohub,2013-01-08 14:12:00,
2013-01-08 08:17:00,25.9,21.2,30.16,NNW,338,0.0,0.0,82,0.00,,,0.00,meteohub,2013-01-08 14:17:00,
2013-01-08 08:22:00,25.9,21.2,30.16,SSW,203,0.0,0.0,82,0.00,,,0.00,meteohub,2013-01-08 14:22:00,
2013-01-08 08:27:00,25.9,21.2,30.16,SE,135,0.0,0.0,82,0.00,,,0.00,meteohub,2013-01-08 14:27:00,
2013-01-08 08:32:00,25.9,21.2,30.17,SSW,203,0.0,0.0,82,0.00,,,0.00,meteohub,2013-01-08 14:32:00,
2013-01-08 08:37:00,26.1,21.0,30.16,NNW,338,0.0,0.0,81,0.00,,,0.00,meteohub,2013-01-08 14:37:00,
2013-01-08 08:42:00,26.2,21.2,30.16,NNW,338,0.0,0.0,81,0.00,,,0.00,meteohub,2013-01-08 14:42:00,
2013-01-08 08:47:00,26.2,21.2,30.17,SSW,203,0.0,0.0,81,0.00,,,0.00,meteohub,2013-01-08 14:47:00,
2013-01-08 08:52:00,26.4,21.4,30.17,NNW,338,0.0,0.0,81,0.00,,,0.00,meteohub,2013-01-08 14:52:00,
2013-01-08 08:57:00,26.6,21.0,30.17,NNW,338,0.0,0.0,79,0.00,,,0.00,meteohub,2013-01-08 14:57:00,
2013-01-08 09:02:00,26.8,21.2,30.16,SSW,203,0.0,0.0,79,0.00,,,0.00,meteohub,2013-01-08 15:02:00,
2013-01-08 09:07:00,27.3,21.7,30.16,NNW,338,0.0,0.0,79,0.00,,,0.00,meteohub,2013-01-08 15:07:00,
2013-01-08 09:12:00,27.5,21.6,30.16,SSW,203,0.0,0.0,78,0.00,,,0.00,meteohub,2013-01-08 15:12:00,
2013-01-08 09:17:00,27.9,21.9,30.16,NNW,338,0.0,0.0,78,0.00,,,0.00,meteohub,2013-01-08 15:17:00,
2013-01-08 09:22:00,28.4,23.4,30.15,SSW,203,0.0,0.0,81,0.00,,,0.00,meteohub,2013-01-08 15:22:00,
2013-01-08 09:27:00,29.5,23.7,30.16,NNW,338,0.0,0.0,79,0.00,,,0.00,meteohub,2013-01-08 15:27:00,
2013-01-08 09:32:00,30.4,23.4,30.15,SSW,203,0.0,0.0,75,0.00,,,0.00,meteohub,2013-01-08 15:32:00,
2013-01-08 09:37:00,30.6,23.2,30.15,SSW,203,0.0,0.0,74,0.00,,,0.00,meteohub,2013-01-08 15:37:00,
2013-01-08 09:42:00,31.1,23.5,30.15,SSW,203,0.0,0.0,73,0.00,,,0.00,meteohub,2013-01-08 15:42:00,
2013-01-08 09:47:00,31.5,23.5,30.15,SSW,203,0.0,0.0,72,0.00,,,0.00,meteohub,2013-01-08 15:47:00,
2013-01-08 09:52:00,31.8,23.5,30.14,SSW,203,0.0,0.0,71,0.00,,,0.00,meteohub,2013-01-08 15:52:00,
2013-01-08 09:57:00,32.4,23.7,30.14,SSW,203,0.0,0.0,70,0.00,,,0.00,meteohub,2013-01-08 15:57:00,
2013-01-08 10:02:00,32.9,23.9,30.14,SSW,203,0.0,0.0,69,0.00,,,0.00,meteohub,2013-01-08 16:02:00,
2013-01-08 10:07:00,33.8,23.7,30.14,SSW,203,0.0,0.0,66,0.00,,,0.00,meteohub,2013-01-08 16:07:00,
2013-01-08 10:12:00,34.7,23.7,30.14,NNW,338,0.0,0.0,64,0.00,,,0.00,meteohub,2013-01-08 16:12:00,
2013-01-08 10:17:00,34.5,22.8,30.14,NNW,338,0.0,0.0,62,0.00,,,0.00,meteohub,2013-01-08 16:17:00,
2013-01-08 10:22:00,34.3,22.6,30.14,NNW,338,0.0,0.0,62,0.00,,,0.00,meteohub,2013-01-08 16:22:00,
2013-01-08 10:27:00,34.3,22.6,30.14,NNW,338,0.0,0.0,62,0.00,,,0.00,meteohub,2013-01-08 16:27:00,
2013-01-08 10:32:00,34.9,22.8,30.14,SE,135,0.0,0.0,61,0.00,,,0.00,meteohub,2013-01-08 16:32:00,
2013-01-08 10:37:00,35.6,23.0,30.14,SSW,203,0.0,0.0,60,0.00,,,0.00,meteohub,2013-01-08 16:37:00,
2013-01-08 10:42:00,36.1,23.5,30.13,SSW,203,0.0,0.0,60,0.00,,,0.00,meteohub,2013-01-08 16:42:00,
2013-01-08 10:52:00,37.4,25.5,30.12,SSW,203,0.0,0.0,62,0.00,,,0.00,meteohub,2013-01-08 16:52:00,
2013-01-08 10:57:00,37.4,24.8,30.12,SSW,203,0.0,0.0,60,0.00,,,0.00,meteohub,2013-01-08 16:57:00,
2013-01-08 11:02:00,37.4,24.8,30.12,NNW,338,0.0,0.0,60,0.00,,,0.00,meteohub,2013-01-08 17:02:00,
2013-01-08 11:07:00,37.6,25.0,30.12,SSW,203,0.0,0.0,60,0.00,,,0.00,meteohub,2013-01-08 17:07:00,
2013-01-08 11:12:00,37.6,24.6,30.11,SSW,203,0.0,0.0,59,0.00,,,0.00,meteohub,2013-01-08 17:12:00,
2013-01-08 11:17:00,39.2,26.1,30.11,West,270,0.0,0.0,59,0.00,,,0.00,meteohub,2013-01-08 17:17:00,
2013-01-08 11:22:00,39.9,25.9,30.11,SSE,158,0.0,0.0,57,0.00,,,0.00,meteohub,2013-01-08 17:22:00,
2013-01-08 11:27:00,40.3,25.0,30.10,SSW,203,0.0,0.0,54,0.00,,,0.00,meteohub,2013-01-08 17:27:00,
2013-01-08 11:32:00,40.3,25.0,30.10,SSW,203,0.0,0.0,54,0.00,,,0.00,meteohub,2013-01-08 17:32:00,
2013-01-08 11:37:00,41.4,25.5,30.10,SSW,203,0.0,0.0,53,0.00,,,0.00,meteohub,2013-01-08 17:37:00,
2013-01-08 11:42:00,41.5,25.2,30.10,SSW,203,0.0,0.0,52,0.00,,,0.00,meteohub,2013-01-08 17:42:00,
2013-01-08 11:47:00,41.9,25.5,30.09,NNW,338,0.0,0.0,52,0.00,,,0.00,meteohub,2013-01-08 17:47:00,
2013-01-08 11:52:00,41.4,25.0,30.09,NNW,338,0.0,0.0,52,0.00,,,0.00,meteohub,2013-01-08 17:52:00,
2013-01-08 11:57:00,42.3,25.9,30.09,SSW,203,0.0,0.0,52,0.00,,,0.00,meteohub,2013-01-08 17:57:00,
2013-01-08 12:02:00,41.7,25.3,30.09,West,270,0.0,0.0,52,0.00,,,0.00,meteohub,2013-01-08 18:02:00,
2013-01-08 12:07:00,41.5,25.2,30.09,SW,225,0.0,0.0,52,0.00,,,0.00,meteohub,2013-01-08 18:07:00,
2013-01-08 12:12:00,42.4,25.5,30.09,SSW,203,0.0,0.0,51,0.00,,,0.00,meteohub,2013-01-08 18:12:00,
2013-01-08 12:17:00,41.9,25.2,30.09,SSW,203,0.0,0.0,51,0.00,,,0.00,meteohub,2013-01-08 18:17:00,
2013-01-08 12:22:00,43.2,26.2,30.09,SSW,203,0.0,0.0,51,0.00,,,0.00,meteohub,2013-01-08 18:22:00,
2013-01-08 12:27:00,43.2,25.3,30.08,ESE,113,0.0,0.0,49,0.00,,,0.00,meteohub,2013-01-08 18:27:00,
2013-01-08 12:32:00,43.3,25.5,30.08,SSW,203,0.0,0.0,49,0.00,,,0.00,meteohub,2013-01-08 18:32:00,
2013-01-08 12:37:00,43.3,25.5,30.08,ESE,113,0.0,0.0,49,0.00,,,0.00,meteohub,2013-01-08 18:37:00,
2013-01-08 12:42:00,43.7,26.2,30.08,SSW,203,0.0,0.0,50,0.00,,,0.00,meteohub,2013-01-08 18:42:00,
2013-01-08 12:47:00,44.1,26.1,30.07,SSW,203,0.0,0.0,49,0.00,,,0.00,meteohub,2013-01-08 18:47:00,
2013-01-08 12:52:00,43.0,25.2,30.07,SSW,203,0.0,0.0,49,0.00,,,0.00,meteohub,2013-01-08 18:52:00,
2013-01-08 13:02:00,43.0,26.1,30.07,SSW,203,0.0,0.0,51,0.00,,,0.00,meteohub,2013-01-08 19:02:00,
2013-01-08 13:12:00,43.7,25.7,30.07,SSW,203,0.0,0.0,49,0.00,,,0.00,meteohub,2013-01-08 19:12:00,
2013-01-08 13:17:00,43.5,26.1,30.06,SSW,203,0.0,0.0,50,0.00,,,0.00,meteohub,2013-01-08 19:17:00,
2013-01-08 13:22:00,42.8,25.5,30.06,SSW,203,0.0,0.0,50,0.00,,,0.00,meteohub,2013-01-08 19:22:00,
2013-01-08 13:27:00,42.1,25.7,30.06,NNW,338,0.0,0.0,52,0.00,,,0.00,meteohub,2013-01-08 19:27:00,
2013-01-08 13:32:00,42.6,26.2,30.06,SSW,203,0.0,0.0,52,0.00,,,0.00,meteohub,2013-01-08 19:32:00,
2013-01-08 13:37:00,43.5,27.1,30.06,SSW,203,0.0,0.0,52,0.00,,,0.00,meteohub,2013-01-08 19:37:00,
2013-01-08 13:42:00,43.9,26.4,30.06,SSW,203,0.0,0.0,50,0.00,,,0.00,meteohub,2013-01-08 19:42:00,
2013-01-08 13:47:00,44.1,26.6,30.06,ESE,113,0.0,0.0,50,0.00,,,0.00,meteohub,2013-01-08 19:47:00,
2013-01-08 13:52:00,43.5,25.7,30.06,SSW,203,0.0,0.0,49,0.00,,,0.00,meteohub,2013-01-08 19:52:00,
2013-01-08 13:57:00,43.7,26.2,30.06,SSW,203,0.0,0.0,50,0.00,,,0.00,meteohub,2013-01-08 19:57:00,
2013-01-08 14:02:00,43.7,26.2,30.06,SSW,203,0.0,0.0,50,0.00,,,0.00,meteohub,2013-01-08 20:02:00,
2013-01-08 14:07:00,43.3,25.9,30.06,SSW,203,0.0,0.0,50,0.00,,,0.00,meteohub,2013-01-08 20:07:00,
2013-01-08 14:12:00,43.7,26.2,30.05,SSW,203,0.0,0.0,50,0.00,,,0.00,meteohub,2013-01-08 20:12:00,
2013-01-08 14:17:00,43.2,25.7,30.06,SSW,203,0.0,0.0,50,0.00,,,0.00,meteohub,2013-01-08 20:17:00,
2013-01-08 14:22:00,42.8,25.9,30.06,SSW,203,0.0,0.0,51,0.00,,,0.00,meteohub,2013-01-08 20:22:00,
2013-01-08 14:27:00,42.1,26.2,30.06,SSW,203,0.0,0.0,53,0.00,,,0.00,meteohub,2013-01-08 20:27:00,
2013-01-08 14:32:00,41.2,26.2,30.06,SSW,203,0.0,0.0,55,0.00,,,0.00,meteohub,2013-01-08 20:32:00,
2013-01-08 14:37:00,40.6,27.0,30.06,ESE,113,0.0,0.0,58,0.00,,,0.00,meteohub,2013-01-08 20:37:00,
2013-01-08 14:42:00,40.5,27.3,30.06,SSW,203,0.0,0.0,59,0.00,,,0.00,meteohub,2013-01-08 20:42:00,
2013-01-08 14:47:00,40.1,27.0,30.06,SSW,203,0.0,0.0,59,0.00,,,0.00,meteohub,2013-01-08 20:47:00,
2013-01-08 14:52:00,39.4,26.6,30.06,SSW,203,0.0,0.0,60,0.00,,,0.00,meteohub,2013-01-08 20:52:00,
2013-01-08 15:02:00,39.4,26.6,30.06,SSW,203,0.0,0.0,60,0.00,,,0.00,meteohub,2013-01-08 21:02:00,
2013-01-08 15:07:00,39.6,26.8,30.06,SSW,203,0.0,0.0,60,0.00,,,0.00,meteohub,2013-01-08 21:07:00,
2013-01-08 15:17:00,39.2,27.0,30.07,SSW,203,0.0,0.0,61,0.00,,,0.00,meteohub,2013-01-08 21:17:00,
2013-01-08 15:22:00,39.0,27.1,30.07,SSW,203,0.0,0.0,62,0.00,,,0.00,meteohub,2013-01-08 21:22:00,
2013-01-08 15:27:00,39.0,27.1,30.07,ESE,113,0.0,0.0,62,0.00,,,0.00,meteohub,2013-01-08 21:27:00,
2013-01-08 15:32:00,38.8,27.3,30.07,SSW,203,0.0,0.0,63,0.00,,,0.00,meteohub,2013-01-08 21:32:00,
2013-01-08 15:37:00,38.7,27.1,30.07,SW,225,0.0,0.0,63,0.00,,,0.00,meteohub,2013-01-08 21:37:00,
2013-01-08 15:42:00,38.5,27.3,30.07,SSW,203,0.0,0.0,64,0.00,,,0.00,meteohub,2013-01-08 21:42:00,
2013-01-08 15:47:00,38.5,27.3,30.07,SSW,203,0.0,0.0,64,0.00,,,0.00,meteohub,2013-01-08 21:47:00,
2013-01-08 15:52:00,38.3,27.1,30.07,SSW,203,0.0,0.0,64,0.00,,,0.00,meteohub,2013-01-08 21:52:00,
2013-01-08 15:57:00,38.3,27.5,30.06,SSW,203,0.0,0.0,65,0.00,,,0.00,meteohub,2013-01-08 21:57:00,
2013-01-08 16:02:00,38.1,27.3,30.06,SSW,203,0.0,0.0,65,0.00,,,0.00,meteohub,2013-01-08 22:02:00,
2013-01-08 16:07:00,38.1,27.3,30.06,SSW,203,0.0,0.0,65,0.00,,,0.00,meteohub,2013-01-08 22:07:00,
2013-01-08 16:12:00,37.9,27.7,30.06,SSW,203,0.0,0.0,66,0.00,,,0.00,meteohub,2013-01-08 22:12:00,
2013-01-08 16:17:00,37.9,27.7,30.06,SSW,203,0.0,0.0,66,0.00,,,0.00,meteohub,2013-01-08 22:17:00,
2013-01-08 16:27:00,37.9,27.7,30.06,SSW,203,0.0,0.0,66,0.00,,,0.00,meteohub,2013-01-08 22:27:00,
2013-01-08 16:32:00,37.8,27.5,30.05,East,90,0.0,0.0,66,0.00,,,0.00,meteohub,2013-01-08 22:32:00,
2013-01-08 16:37:00,37.8,27.5,30.04,SSW,203,0.0,0.0,66,0.00,,,0.00,meteohub,2013-01-08 22:37:00,
2013-01-08 16:42:00,37.6,27.3,30.04,ESE,113,0.0,0.0,66,0.00,,,0.00,meteohub,2013-01-08 22:42:00,
2013-01-08 16:47:00,37.6,27.3,30.05,SSW,203,0.0,0.0,66,0.00,,,0.00,meteohub,2013-01-08 22:47:00,
2013-01-08 16:52:00,37.6,27.3,30.04,SSW,203,0.0,0.0,66,0.00,,,0.00,meteohub,2013-01-08 22:52:00,
2013-01-08 16:57:00,37.6,27.3,30.04,SSW,203,0.0,0.0,66,0.00,,,0.00,meteohub,2013-01-08 22:57:00,
2013-01-08 17:02:00,37.6,27.3,30.04,SSW,203,0.0,0.0,66,0.00,,,0.00,meteohub,2013-01-08 23:02:00,
2013-01-08 17:07:00,37.4,27.1,30.04,East,90,0.0,0.0,66,0.00,,,0.00,meteohub,2013-01-08 23:07:00,
2013-01-08 17:12:00,37.4,27.1,30.05,SSW,203,0.0,0.0,66,0.00,,,0.00,meteohub,2013-01-08 23:12:00,
2013-01-08 17:17:00,37.4,27.1,30.04,SSW,203,0.0,0.0,66,0.00,,,0.00,meteohub,2013-01-08 23:17:00,
2013-01-08 17:22:00,37.6,27.3,30.04,SSW,203,0.0,0.0,66,0.00,,,0.00,meteohub,2013-01-08 23:22:00,
2013-01-08 17:27:00,37.6,27.3,30.04,SSW,203,0.0,0.0,66,0.00,,,0.00,meteohub,2013-01-08 23:27:00,
2013-01-08 17:32:00,37.4,27.1,30.04,SSW,203,0.0,0.0,66,0.00,,,0.00,meteohub,2013-01-08 23:32:00,
2013-01-08 17:37:00,37.4,27.5,30.04,SSW,203,0.0,0.0,67,0.00,,,0.00,meteohub,2013-01-08 23:37:00,
2013-01-08 17:42:00,37.4,27.5,30.04,SSW,203,0.0,0.0,67,0.00,,,0.00,meteohub,2013-01-08 23:42:00,
2013-01-08 17:47:00,37.4,27.5,30.04,SSW,203,0.0,0.0,67,0.00,,,0.00,meteohub,2013-01-08 23:47:00,
2013-01-08 17:52:00,37.4,27.5,30.04,SSW,203,0.0,0.0,67,0.00,,,0.00,meteohub,2013-01-08 23:52:00,
2013-01-08 17:57:00,37.4,27.5,30.04,SSW,203,0.0,0.0,67,0.00,,,0.00,meteohub,2013-01-08 23:57:00,
2013-01-08 18:02:00,37.6,27.7,30.04,SSW,203,0.0,0.0,67,0.00,,,0.00,meteohub,2013-01-09 00:02:00,
2013-01-08 18:07:00,37.4,27.5,30.04,SSW,203,0.0,0.0,67,0.00,,,0.00,meteohub,2013-01-09 00:07:00,
2013-01-08 18:12:00,37.2,26.2,30.03,West,270,0.0,0.0,64,0.00,,,0.00,meteohub,2013-01-09 00:12:00,
2013-01-08 18:17:00,37.0,26.1,30.03,SSW,203,0.0,0.0,64,0.00,,,0.00,meteohub,2013-01-09 00:17:00,
2013-01-08 18:22:00,37.0,26.4,30.03,SSW,203,0.0,0.0,65,0.00,,,0.00,meteohub,2013-01-09 00:22:00,
2013-01-08 18:27:00,36.9,26.2,30.03,SSW,203,0.0,0.0,65,0.00,,,0.00,meteohub,2013-01-09 00:27:00,
2013-01-08 18:32:00,37.0,26.4,30.04,SSW,203,0.0,0.0,65,0.00,,,0.00,meteohub,2013-01-09 00:32:00,
2013-01-08 18:37:00,37.0,26.4,30.04,SSW,203,0.0,0.0,65,0.00,,,0.00,meteohub,2013-01-09 00:37:00,
2013-01-08 18:42:00,36.9,26.2,30.04,SSW,203,0.0,0.0,65,0.00,,,0.00,meteohub,2013-01-09 00:42:00,
2013-01-08 18:47:00,36.9,26.2,30.04,SW,225,0.0,0.0,65,0.00,,,0.00,meteohub,2013-01-09 00:47:00,
2013-01-08 18:52:00,36.9,26.2,30.03,SSW,203,0.0,0.0,65,0.00,,,0.00,meteohub,2013-01-09 00:52:00,
2013-01-08 18:57:00,36.9,26.2,30.03,SSW,203,0.0,0.0,65,0.00,,,0.00,meteohub,2013-01-09 00:57:00,
2013-01-08 19:02:00,36.7,26.1,30.03,SSW,203,0.0,0.0,65,0.00,,,0.00,meteohub,2013-01-09 01:02:00,
2013-01-08 19:07:00,36.7,26.1,30.04,SSW,203,0.0,0.0,65,0.00,,,0.00,meteohub,2013-01-09 01:07:00,
2013-01-08 19:12:00,36.7,26.1,30.04,SSW,203,0.0,0.0,65,0.00,,,0.00,meteohub,2013-01-09 01:12:00,
2013-01-08 19:22:00,36.3,26.1,30.03,SSW,203,0.0,0.0,66,0.00,,,0.00,meteohub,2013-01-09 01:22:00,
2013-01-08 19:27:00,36.3,26.1,30.03,SSW,203,0.0,0.0,66,0.00,,,0.00,meteohub,2013-01-09 01:27:00,
2013-01-08 19:32:00,36.1,26.2,30.02,SSW,203,0.0,0.0,67,0.00,,,0.00,meteohub,2013-01-09 01:32:00,
2013-01-08 19:37:00,36.0,26.1,30.02,SSW,203,0.0,0.0,67,0.00,,,0.00,meteohub,2013-01-09 01:37:00,
2013-01-08 19:42:00,36.0,26.4,30.01,SSW,203,0.0,0.0,68,0.00,,,0.00,meteohub,2013-01-09 01:42:00,
2013-01-08 19:47:00,36.0,26.4,30.02,SSW,203,0.0,0.0,68,0.00,,,0.00,meteohub,2013-01-09 01:47:00,
2013-01-08 19:52:00,35.8,26.2,30.02,NW,315,0.0,0.0,68,0.00,,,0.00,meteohub,2013-01-09 01:52:00,
2013-01-08 19:57:00,36.0,26.4,30.02,SSW,203,0.0,0.0,68,0.00,,,0.00,meteohub,2013-01-09 01:57:00,
2013-01-08 20:02:00,36.1,26.6,30.01,SSW,203,0.0,0.0,68,0.00,,,0.00,meteohub,2013-01-09 02:02:00,
2013-01-08 20:07:00,36.1,26.6,30.01,SSW,203,0.0,0.0,68,0.00,,,0.00,meteohub,2013-01-09 02:07:00,
2013-01-08 20:12:00,36.0,26.4,30.01,SSW,203,0.0,0.0,68,0.00,,,0.00,meteohub,2013-01-09 02:12:00,
2013-01-08 20:17:00,36.0,26.4,30.01,SSW,203,0.0,0.0,68,0.00,,,0.00,meteohub,2013-01-09 02:17:00,
2013-01-08 20:22:00,36.0,26.4,30.01,SSW,203,0.0,0.0,68,0.00,,,0.00,meteohub,2013-01-09 02:22:00,
2013-01-08 20:27:00,36.1,26.6,30.01,WSW,248,0.0,0.0,68,0.00,,,0.00,meteohub,2013-01-09 02:27:00,
2013-01-08 20:32:00,36.1,26.6,30.01,SSW,203,0.0,0.0,68,0.00,,,0.00,meteohub,2013-01-09 02:32:00,
2013-01-08 20:37:00,36.5,26.6,30.01,SSW,203,0.0,0.0,67,0.00,,,0.00,meteohub,2013-01-09 02:37:00,
2013-01-08 20:42:00,36.7,26.8,30.02,SSW,203,0.0,0.0,67,0.00,,,0.00,meteohub,2013-01-09 02:42:00,
2013-01-08 20:47:00,37.2,26.6,30.02,SSW,203,0.0,0.0,65,0.00,,,0.00,meteohub,2013-01-09 02:47:00,
2013-01-08 20:52:00,37.4,28.2,30.02,NW,315,0.0,0.0,69,0.00,,,0.00,meteohub,2013-01-09 02:52:00,
2013-01-08 20:57:00,37.8,28.2,30.01,SSW,203,0.0,0.0,68,0.00,,,0.00,meteohub,2013-01-09 02:57:00,
2013-01-08 21:02:00,37.8,27.9,30.01,SSW,203,0.0,0.0,67,0.00,,,0.00,meteohub,2013-01-09 03:02:00,
2013-01-08 21:07:00,37.8,27.9,30.01,SSW,203,0.0,0.0,67,0.00,,,0.00,meteohub,2013-01-09 03:07:00,
2013-01-08 21:12:00,37.6,27.7,30.02,SSW,203,0.0,0.0,67,0.00,,,0.00,meteohub,2013-01-09 03:12:00,
2013-01-08 21:17:00,37.9,28.0,30.00,SSW,203,0.0,0.0,67,0.00,,,0.00,meteohub,2013-01-09 03:17:00,
2013-01-08 21:22:00,37.9,27.7,30.01,SSW,203,0.0,0.0,66,0.00,,,0.00,meteohub,2013-01-09 03:22:00,
2013-01-08 21:27:00,37.9,27.7,30.01,SSW,203,0.0,0.0,66,0.00,,,0.00,meteohub,2013-01-09 03:27:00,
2013-01-08 21:32:00,37.9,27.7,30.01,SW,225,0.0,0.0,66,0.00,,,0.00,meteohub,2013-01-09 03:32:00,
2013-01-08 21:37:00,37.8,27.5,30.01,SW,225,0.0,0.0,66,0.00,,,0.00,meteohub,2013-01-09 03:37:00,
2013-01-08 21:42:00,37.8,27.5,30.01,SSW,203,0.0,0.0,66,0.00,,,0.00,meteohub,2013-01-09 03:42:00,
2013-01-08 21:47:00,37.8,27.5,30.01,SSW,203,0.0,0.0,66,0.00,,,0.00,meteohub,2013-01-09 03:47:00,
2013-01-08 21:52:00,37.9,27.7,30.00,SSW,203,0.0,0.0,66,0.00,,,0.00,meteohub,2013-01-09 03:52:00,
2013-01-08 21:57:00,37.9,27.1,30.00,SSW,203,0.0,0.0,65,0.00,,,0.00,meteohub,2013-01-09 03:57:00,
2013-01-08 22:02:00,37.9,27.1,29.99,NW,315,0.0,0.0,65,0.00,,,0.00,meteohub,2013-01-09 04:02:00,
2013-01-08 22:07:00,37.9,27.1,29.99,North,-999,-999.0,0.0,65,0.00,,,0.00,meteohub,2013-01-09 04:07:00,
2013-01-08 22:12:00,37.9,27.1,29.99,SW,225,0.0,0.0,65,0.00,,,0.00,meteohub,2013-01-09 04:12:00,
2013-01-08 22:17:00,37.9,27.1,30.00,SSW,203,0.0,0.0,65,0.00,,,0.00,meteohub,2013-01-09 04:17:00,
2013-01-08 22:22:00,37.8,27.1,29.99,WSW,248,0.0,0.0,65,0.00,,,0.00,meteohub,2013-01-09 04:22:00,
2013-01-08 22:27:00,37.9,27.1,29.99,SSW,203,0.0,0.0,65,0.00,,,0.00,meteohub,2013-01-09 04:27:00,
2013-01-08 22:32:00,37.8,27.1,29.99,SSW,203,0.0,0.0,65,0.00,,,0.00,meteohub,2013-01-09 04:32:00,
2013-01-08 22:37:00,37.8,27.1,29.99,SSW,203,0.0,0.0,65,0.00,,,0.00,meteohub,2013-01-09 04:37:00,
2013-01-08 22:42:00,37.8,27.1,29.99,WSW,248,0.0,0.0,65,0.00,,,0.00,meteohub,2013-01-09 04:42:00,
2013-01-08 22:47:00,37.8,27.1,29.98,SSW,203,0.0,0.0,65,0.00,,,0.00,meteohub,2013-01-09 04:47:00,
2013-01-08 22:52:00,37.8,27.1,29.98,SSW,203,0.0,0.0,65,0.00,,,0.00,meteohub,2013-01-09 04:52:00,
2013-01-08 22:57:00,37.9,27.1,29.98,WNW,293,0.0,0.0,65,0.00,,,0.00,meteohub,2013-01-09 04:57:00,
2013-01-08 23:02:00,37.9,27.1,29.99,WNW,293,0.0,0.0,65,0.00,,,0.00,meteohub,2013-01-09 05:02:00,
2013-01-08 23:07:00,37.9,27.1,29.98,SSW,203,0.0,0.0,65,0.00,,,0.00,meteohub,2013-01-09 05:07:00,
2013-01-08 23:12:00,37.9,27.1,29.98,SSW,203,0.0,0.0,65,0.00,,,0.00,meteohub,2013-01-09 05:12:00,
2013-01-08 23:17:00,37.9,27.1,29.98,SSW,203,0.0,0.0,65,0.00,,,0.00,meteohub,2013-01-09 05:17:00,
2013-01-08 23:22:00,37.9,27.1,29.97,SSW,203,0.0,0.0,65,0.00,,,0.00,meteohub,2013-01-09 05:22:00,
2013-01-08 23:27:00,37.9,27.1,29.97,SSW,203,0.0,0.0,65,0.00,,,0.00,meteohub,2013-01-09 05:27:00,
2013-01-08 23:32:00,37.9,27.1,29.97,West,270,0.0,0.0,65,0.00,,,0.00,meteohub,2013-01-09 05:32:00,
2013-01-08 23:37:00,37.9,27.1,29.97,NW,315,0.0,0.0,65,0.00,,,0.00,meteohub,2013-01-09 05:37:00,
2013-01-08 23:42:00,37.9,27.1,29.97,SSW,203,0.0,0.0,65,0.00,,,0.00,meteohub,2013-01-09 05:42:00,
2013-01-08 23:47:00,38.1,27.3,29.96,SSW,203,0.0,0.0,65,0.00,,,0.00,meteohub,2013-01-09 05:47:00,
2013-01-08 23:52:00,38.3,27.5,29.96,North,-999,-999.0,0.0,65,0.00,,,0.00,meteohub,2013-01-09 05:52:00,
2013-01-08 23:57:00,38.5,27.3,29.96,NNE,23,0.0,0.0,64,0.00,,,0.00,meteohub,2013-01-09 05:57:00,